Morrisville, VT

5:33 AM EST on December 13, 2019 (GMT -0500)
Morrisville Stowe State

Weather History for KMVL - August, 2019

Change the Weather History Date:

Saturday, August 10, 2019

  Actual Average Record
Temperature  
Mean Temperature 59 °F 66 °F  
Max Temperature 68 °F 79 °F 89 °F (2005)
Min Temperature 50 °F 54 °F 42 °F (1999)
Degree Days  
Heating Degree Days 6 2  
Month to date heating degree days 14 15  
Since 1 June heating degree days 167 168  
Since 1 July heating degree days 24 45  
Cooling Degree Days 0 3  
Month to date cooling degree days 18 30  
Year to date cooling degree days 200 198  
Since 1 June cooling degree days 199 190  
Growing Degree Days 10 (Base 50)    
Moisture  
Dew Point 53 °F    
Average Humidity 76    
Maximum Humidity 96    
Minimum Humidity 56    
Precipitation  
Precipitation 0.22 in 0.13 in 1.80 in (1998)
Month to date precipitation 1.49 1.42  
Year to date precipitation 24.93 21.15  
Sea Level Pressure  
Sea Level Pressure 29.78 in    
Wind  
Wind Speed 4 mph (West)    
Max Wind Speed 21 mph    
Max Gust Speed 33 mph    
Visibility 10 miles    
Events Rain    
T = Trace of Precipitation, MM = Missing Value Source: NWS Daily Summary

Daily Weather History Graph

Daily Weather History Graph

Search for Another Location

Airport or City:

Astronomy

Aug. 10, 2019 Rise Set
Actual Time 5:47 AM EDT 8:03 PM EDT
Civil Twilight 5:14 AM EDT 8:35 PM EDT
Nautical Twilight 4:34 AM EDT 9:15 PM EDT
Astronomical Twilight 3:50 AM EDT 10:00 PM EDT
Moon 4:48 PM EDT (8/10) 1:18 AM EDT (8/10)
Length of Visible Light 15h 21m
Length of Day
14h 16m
Waxing Gibbous, 79% of the Moon is Illuminated
Aug 10
Waxing Gibbous
Aug 15
Full
Aug 23
Last Quarter
Aug 30
New
Sep 5
First Quarter

Hourly Weather History & Observations

Time (EDT) Temp. Dew Point Humidity Pressure Visibility Wind Dir Wind Speed Gust Speed Precip Events Conditions
12:54 AM 59.0 °F 55.9 °F 90% 29.73 in 10.0 mi Calm Calm - 0.00 in   Overcast
1:54 AM 57.9 °F 55.9 °F 93% 29.72 in 10.0 mi SSE 5.8 mph - 0.00 in   Scattered Clouds
2:54 AM 57.9 °F 55.0 °F 90% 29.72 in 10.0 mi Calm Calm - N/A   Overcast
3:54 AM 57.9 °F 55.9 °F 93% 29.72 in 10.0 mi Calm Calm - N/A   Overcast
4:54 AM 57.9 °F 55.9 °F 93% 29.71 in 10.0 mi South 3.5 mph - N/A   Overcast
5:54 AM 57.9 °F 55.0 °F 90% 29.73 in 10.0 mi Variable 3.5 mph - N/A   Mostly Cloudy
6:54 AM 57.9 °F 55.0 °F 90% 29.73 in 10.0 mi SW 3.5 mph - 0.00 in   Mostly Cloudy
7:54 AM 61.0 °F 55.9 °F 83% 29.74 in 10.0 mi Calm Calm - N/A   Overcast
8:54 AM 62.1 °F 55.9 °F 80% 29.76 in 10.0 mi NW 5.8 mph - N/A   Overcast
9:54 AM 64.9 °F 48.9 °F 56% 29.76 in 10.0 mi NNW 6.9 mph - N/A   Mostly Cloudy
10:54 AM 66.9 °F 50.0 °F 54% 29.76 in 10.0 mi Variable 5.8 mph - N/A   Scattered Clouds
11:54 AM 60.1 °F 54.0 °F 80% 29.78 in 10.0 mi North 6.9 mph - 0.04 in Rain Light Rain
12:54 PM 66.0 °F 53.1 °F 63% 29.76 in 10.0 mi Variable 6.9 mph - 0.00 in   Mostly Cloudy
1:54 PM 60.1 °F 51.1 °F 72% 29.78 in 8.0 mi WNW 5.8 mph - 0.02 in Rain Light Rain
2:54 PM 64.0 °F 51.1 °F 63% 29.78 in 10.0 mi Variable 4.6 mph - 0.00 in   Overcast
3:54 PM 66.0 °F 50.0 °F 56% 29.78 in 10.0 mi NNW 9.2 mph 18.4 mph N/A   Mostly Cloudy
4:22 PM 55.0 °F 51.1 °F 86% 29.80 in 1.8 mi WNW 5.8 mph 32.2 mph 0.12 in Rain Heavy Rain
4:54 PM 57.0 °F 53.1 °F 87% 29.83 in 10.0 mi NNW 6.9 mph - 0.14 in Rain Light Rain
5:54 PM 60.1 °F 54.0 °F 80% 29.81 in 10.0 mi West 4.6 mph - 0.02 in   Clear
6:54 PM 59.0 °F 55.0 °F 87% 29.83 in 10.0 mi Calm Calm - N/A   Clear
7:54 PM 55.9 °F 54.0 °F 93% 29.84 in 10.0 mi SSW 4.6 mph - N/A   Partly Cloudy
8:54 PM 55.0 °F 53.1 °F 93% 29.86 in 10.0 mi Calm Calm - N/A   Mostly Cloudy
9:54 PM 53.1 °F 52.0 °F 96% 29.87 in 10.0 mi SSW 3.5 mph - N/A   Partly Cloudy
10:54 PM 53.1 °F 51.1 °F 93% 29.88 in 10.0 mi Calm Calm - N/A   Partly Cloudy
11:54 PM 52.0 °F 50.0 °F 93% 29.90 in 10.0 mi Calm Calm - N/A   Clear